DLH892 EDDF-EVRA

Flight info

Callsign DLH892
Flight time 1h 43m
Altitude 31000
Route TOBAK3W TOBAK N858 FEDZA Y172 ETIDI/N0448F350 Y172 SISMI DCT ASMIG DCT RIMKO DCT FARCU DCT GORPI DCT ANFEV DCT DIPEB DCT NINTA DCT ADAXA DCT ORVIX
Aircraft A321/M-SDE3FGHIRWY/LB1

Departure

Time 2026-05-07 02:53
Airport Frankfurt Main Airport (EDDF)

Arrival

Time 2026-05-07 04:36
Airport Riga International Airport (EVRA)
Time Latitude Longitude Altitude Speed Heading
2026-05-07 02:20 50.04480 8.56537 361 ft 0 kts 164°
2026-05-07 02:41 50.04486 8.56535 362 ft 4 kts 165°
2026-05-07 02:42 50.04512 8.56523 363 ft 4 kts 160°
2026-05-07 02:42 50.04534 8.56504 363 ft 4 kts 123°
2026-05-07 02:42 50.04542 8.56473 363 ft 4 kts 110°
2026-05-07 02:42 50.04545 8.56452 362 ft 4 kts 192°
2026-05-07 02:43 50.04533 8.56440 359 ft 4 kts 222°
2026-05-07 02:43 50.04521 8.56404 362 ft 4 kts 248°
2026-05-07 02:43 50.04517 8.56387 358 ft 0 kts 250°
2026-05-07 02:46 50.04517 8.56386 358 ft 1 kts 249°
2026-05-07 02:46 50.04509 8.56354 361 ft 5 kts 249°
2026-05-07 02:46 50.04492 8.56282 357 ft 9 kts 249°
2026-05-07 02:46 50.04464 8.56171 360 ft 13 kts 249°
2026-05-07 02:47 50.04437 8.56068 364 ft 5 kts 238°
2026-05-07 02:47 50.04395 8.56037 360 ft 8 kts 180°
2026-05-07 02:47 50.04327 8.56067 358 ft 11 kts 160°
2026-05-07 02:47 50.04285 8.56180 359 ft 13 kts 114°
2026-05-07 02:48 50.04203 8.56266 358 ft 16 kts 156°
2026-05-07 02:48 50.04149 8.56378 356 ft 15 kts 81°
2026-05-07 02:48 50.04190 8.56538 357 ft 17 kts 67°
2026-05-07 02:48 50.04234 8.56717 359 ft 18 kts 72°
2026-05-07 02:49 50.04277 8.56914 359 ft 21 kts 70°
2026-05-07 02:49 50.04330 8.57132 364 ft 21 kts 68°
2026-05-07 02:49 50.04379 8.57329 362 ft 17 kts 73°
2026-05-07 02:49 50.04424 8.57520 361 ft 18 kts 69°
2026-05-07 02:50 50.04468 8.57704 368 ft 19 kts 70°
2026-05-07 02:50 50.04514 8.57895 370 ft 18 kts 70°
2026-05-07 02:50 50.04551 8.58047 365 ft 14 kts 69°
2026-05-07 02:50 50.04583 8.58186 367 ft 12 kts 71°
2026-05-07 02:51 50.04606 8.58288 369 ft 8 kts 70°
2026-05-07 02:51 50.04625 8.58366 369 ft 9 kts 70°
2026-05-07 02:51 50.04650 8.58474 370 ft 11 kts 70°
2026-05-07 02:51 50.04632 8.58562 369 ft 8 kts 140°
2026-05-07 02:52 50.04616 8.58577 369 ft 4 kts 154°
2026-05-07 02:52 50.04583 8.58598 371 ft 7 kts 160°
2026-05-07 02:52 50.04530 8.58620 371 ft 10 kts 179°
2026-05-07 02:52 50.04457 8.58472 373 ft 32 kts 249°
2026-05-07 02:53 50.04276 8.57696 363 ft 118 kts 249°
2026-05-07 02:53 50.03907 8.56150 388 ft 182 kts 251°
2026-05-07 02:53 50.03434 8.54228 1120 ft 192 kts 251°
2026-05-07 02:53 50.02970 8.52297 2074 ft 191 kts 253°
2026-05-07 02:54 50.02436 8.50353 2564 ft 201 kts 240°
2026-05-07 02:54 50.01446 8.48776 3131 ft 209 kts 215°
2026-05-07 02:54 50.00074 8.47979 3710 ft 215 kts 191°
2026-05-07 02:54 49.98611 8.47656 4311 ft 215 kts 191°
2026-05-07 02:55 49.97110 8.47327 4927 ft 216 kts 190°
2026-05-07 02:55 49.95638 8.46880 5469 ft 217 kts 199°
2026-05-07 02:55 49.94129 8.46180 5677 ft 238 kts 199°
2026-05-07 02:55 49.92516 8.45323 6101 ft 248 kts 211°
2026-05-07 02:56 49.91238 8.43584 6787 ft 246 kts 239°
2026-05-07 02:56 49.90641 8.41123 7445 ft 246 kts 266°
2026-05-07 02:56 49.90866 8.38514 8121 ft 247 kts 294°
2026-05-07 02:56 49.91868 8.36358 8800 ft 250 kts 321°
2026-05-07 02:57 49.93383 8.35083 9438 ft 257 kts 336°
2026-05-07 02:57 49.95115 8.33955 9809 ft 273 kts 336°
2026-05-07 02:57 49.96877 8.32821 10182 ft 287 kts 336°
2026-05-07 02:57 49.98815 8.31572 10328 ft 309 kts 336°
2026-05-07 02:58 50.00843 8.30267 10440 ft 329 kts 337°
2026-05-07 02:58 50.03091 8.29229 10713 ft 343 kts 349°
2026-05-07 02:58 50.05492 8.28941 11224 ft 350 kts
2026-05-07 02:58 50.07922 8.29444 11783 ft 356 kts 13°
2026-05-07 02:59 50.09524 8.30212 12172 ft 359 kts 17°
2026-05-07 02:59 50.12684 8.31863 12945 ft 363 kts 17°
2026-05-07 02:59 50.14309 8.32714 13335 ft 366 kts 17°
2026-05-07 02:59 50.16728 8.33984 13877 ft 369 kts 18°
2026-05-07 03:00 50.19176 8.35277 14368 ft 373 kts 17°
2026-05-07 03:00 50.21639 8.36581 14899 ft 375 kts 17°
2026-05-07 03:00 50.24123 8.37891 15402 ft 378 kts 17°
2026-05-07 03:00 50.26621 8.39214 15920 ft 382 kts 19°
2026-05-07 03:01 50.29040 8.40993 16423 ft 386 kts 30°
2026-05-07 03:01 50.31233 8.43458 16899 ft 391 kts 40°
2026-05-07 03:01 50.33274 8.46300 17378 ft 394 kts 41°
2026-05-07 03:01 50.35326 8.49154 17865 ft 397 kts 40°
2026-05-07 03:02 50.37397 8.52029 18299 ft 400 kts 40°
2026-05-07 03:02 50.39488 8.54929 18708 ft 402 kts 40°
2026-05-07 03:02 50.41591 8.57853 19124 ft 405 kts 41°
2026-05-07 03:02 50.43707 8.60793 19542 ft 407 kts 40°
2026-05-07 03:03 50.45840 8.63730 19952 ft 410 kts 40°
2026-05-07 03:03 50.48021 8.66639 20368 ft 412 kts 39°
2026-05-07 03:03 50.50223 8.69522 20781 ft 414 kts 39°
2026-05-07 03:03 50.52454 8.72419 21180 ft 417 kts 39°
2026-05-07 03:04 50.54692 8.75330 21591 ft 419 kts 39°
2026-05-07 03:04 50.56772 8.78567 21957 ft 423 kts 50°
2026-05-07 03:04 50.58488 8.82339 22344 ft 426 kts 59°
2026-05-07 03:04 50.59920 8.86439 22727 ft 428 kts 61°
2026-05-07 03:05 50.61346 8.90567 23126 ft 431 kts 61°
2026-05-07 03:05 50.62788 8.94726 23494 ft 434 kts 61°
2026-05-07 03:05 50.64221 8.98845 23815 ft 436 kts 61°
2026-05-07 03:05 50.65698 9.03091 24154 ft 438 kts 61°
2026-05-07 03:06 50.67142 9.07254 24490 ft 439 kts 61°
2026-05-07 03:06 50.68608 9.11490 24826 ft 441 kts 61°
2026-05-07 03:06 50.70096 9.15802 25181 ft 442 kts 61°
2026-05-07 03:06 50.71549 9.20023 25501 ft 444 kts 61°
2026-05-07 03:07 50.72995 9.24335 25831 ft 446 kts 63°
2026-05-07 03:07 50.74418 9.28775 26156 ft 448 kts 63°
2026-05-07 03:07 50.75773 9.33145 26503 ft 449 kts 64°
2026-05-07 03:07 50.77133 9.37596 26812 ft 451 kts 64°
2026-05-07 03:08 50.78500 9.42064 27192 ft 451 kts 64°
2026-05-07 03:08 50.79875 9.46524 27580 ft 451 kts 63°
2026-05-07 03:08 50.81256 9.50970 27899 ft 452 kts 63°
2026-05-07 03:08 50.82642 9.55426 28200 ft 453 kts 64°
2026-05-07 03:09 50.84035 9.59900 28465 ft 454 kts 63°
2026-05-07 03:09 50.85432 9.64392 28725 ft 455 kts 63°
2026-05-07 03:09 50.86830 9.68886 29003 ft 455 kts 63°
2026-05-07 03:09 50.88229 9.73378 29386 ft 453 kts 63°
2026-05-07 03:10 50.89615 9.77843 29747 ft 452 kts 63°
2026-05-07 03:10 50.90994 9.82312 30082 ft 451 kts 63°
2026-05-07 03:10 50.92365 9.86789 30330 ft 451 kts 64°
2026-05-07 03:10 50.93733 9.91281 30476 ft 455 kts 64°
2026-05-07 03:11 50.95106 9.95800 30677 ft 456 kts 65°
2026-05-07 03:11 50.96483 10.00332 30931 ft 456 kts 65°
2026-05-07 03:11 50.97861 10.04864 31177 ft 456 kts 65°
2026-05-07 03:11 50.99239 10.09394 31390 ft 457 kts 65°
2026-05-07 03:12 51.00618 10.13938 31628 ft 457 kts 65°
2026-05-07 03:12 51.01996 10.18494 31871 ft 458 kts 65°
2026-05-07 03:12 51.03373 10.23057 32091 ft 458 kts 65°
2026-05-07 03:12 51.04767 10.27683 32317 ft 459 kts 66°
2026-05-07 03:13 51.06290 10.32065 32512 ft 460 kts 56°
2026-05-07 03:13 51.08417 10.35979 32726 ft 463 kts 44°
2026-05-07 03:13 51.10884 10.39161 32917 ft 465 kts 35°
2026-05-07 03:13 51.13607 10.41956 33098 ft 466 kts 33°
2026-05-07 03:14 51.16325 10.44774 33282 ft 467 kts 34°
2026-05-07 03:14 51.19061 10.47680 33499 ft 467 kts 35°
2026-05-07 03:14 51.24421 10.53446 33873 ft 469 kts 35°
2026-05-07 03:15 51.27141 10.56365 33991 ft 472 kts 35°
2026-05-07 03:15 51.29879 10.59293 34108 ft 474 kts 35°
2026-05-07 03:15 51.32624 10.62222 34225 ft 476 kts 35°
2026-05-07 03:15 51.35387 10.65169 34358 ft 478 kts 34°
2026-05-07 03:16 51.38155 10.68127 34518 ft 478 kts 35°
2026-05-07 03:16 51.40877 10.71181 34687 ft 478 kts 37°
2026-05-07 03:16 51.43549 10.74354 34827 ft 479 kts 38°
2026-05-07 03:17 51.48811 10.80897 34854 ft 478 kts 39°
2026-05-07 03:17 51.53913 10.87692 34860 ft 476 kts 47°
2026-05-07 03:18 51.58567 10.95281 34869 ft 477 kts 47°
2026-05-07 03:18 51.63244 11.02879 34871 ft 478 kts 47°
2026-05-07 03:19 51.67914 11.10495 34884 ft 478 kts 47°
2026-05-07 03:19 51.72570 11.18147 34888 ft 478 kts 47°
2026-05-07 03:20 51.77222 11.25843 34876 ft 480 kts 47°
2026-05-07 03:20 51.81894 11.33579 34873 ft 482 kts 47°
2026-05-07 03:21 51.86586 11.41349 34877 ft 483 kts 47°
2026-05-07 03:21 51.91287 11.49157 34884 ft 484 kts 47°
2026-05-07 03:22 51.95982 11.56993 34893 ft 485 kts 46°
2026-05-07 03:22 52.00863 11.64562 34903 ft 486 kts 43°
2026-05-07 03:23 52.05890 11.71910 34913 ft 486 kts 43°
2026-05-07 03:23 52.10899 11.79302 34924 ft 486 kts 44°
2026-05-07 03:24 52.15847 11.86802 34922 ft 487 kts 44°
2026-05-07 03:24 52.20787 11.94357 34908 ft 488 kts 44°
2026-05-07 03:25 52.25750 12.01930 34910 ft 489 kts 44°
2026-05-07 03:25 52.30724 12.09524 34916 ft 490 kts 44°
2026-05-07 03:26 52.35698 12.17147 34929 ft 490 kts 44°
2026-05-07 03:26 52.40676 12.24796 34941 ft 491 kts 44°
2026-05-07 03:27 52.45648 12.32464 34940 ft 490 kts 44°
2026-05-07 03:27 52.50613 12.40146 34944 ft 490 kts 44°
2026-05-07 03:28 52.55563 12.47833 34938 ft 490 kts 44°
2026-05-07 03:28 52.60513 12.55542 34956 ft 490 kts 44°
2026-05-07 03:29 52.65452 12.63266 34932 ft 490 kts 44°
2026-05-07 03:29 52.70587 12.70651 34929 ft 491 kts 37°
2026-05-07 03:30 52.76088 12.77374 34936 ft 492 kts 37°
2026-05-07 03:30 52.81558 12.84079 34944 ft 493 kts 37°
2026-05-07 03:31 52.87090 12.90921 34948 ft 494 kts 37°
2026-05-07 03:31 52.92583 12.97737 34951 ft 493 kts 37°
2026-05-07 03:32 52.98087 13.04556 34963 ft 494 kts 37°
2026-05-07 03:32 53.03546 13.11348 34969 ft 494 kts 37°
2026-05-07 03:33 53.09036 13.18205 34976 ft 494 kts 37°
2026-05-07 03:33 53.14521 13.25088 34967 ft 494 kts 37°
2026-05-07 03:34 53.20039 13.32028 34970 ft 494 kts 37°
2026-05-07 03:34 53.25521 13.38934 34981 ft 494 kts 37°
2026-05-07 03:35 53.30962 13.45829 34969 ft 494 kts 37°
2026-05-07 03:35 53.36426 13.52786 34969 ft 494 kts 37°
2026-05-07 03:36 53.41896 13.59763 34976 ft 495 kts 37°
2026-05-07 03:36 53.47380 13.66760 34984 ft 495 kts 37°
2026-05-07 03:37 53.52886 13.73821 34982 ft 495 kts 37°
2026-05-07 03:37 53.58321 13.80822 34983 ft 495 kts 37°
2026-05-07 03:38 53.63821 13.87920 34988 ft 495 kts 37°
2026-05-07 03:38 53.69289 13.94994 35003 ft 495 kts 37°
2026-05-07 03:39 53.74756 14.02092 35008 ft 495 kts 37°
2026-05-07 03:39 53.80199 14.09208 35002 ft 495 kts 37°
2026-05-07 03:40 53.85605 14.16300 35004 ft 495 kts 37°
2026-05-07 03:40 53.90162 14.22288 35002 ft 495 kts 37°
2026-05-07 03:41 53.95546 14.29570 35009 ft 495 kts 38°
2026-05-07 03:41 54.00879 14.36953 34984 ft 495 kts 38°
2026-05-07 03:42 54.06220 14.44357 34987 ft 496 kts 38°
2026-05-07 03:42 54.11589 14.51771 34991 ft 497 kts 38°
2026-05-07 03:43 54.16953 14.59198 35003 ft 497 kts 38°
2026-05-07 03:43 54.22314 14.66648 35006 ft 497 kts 38°
2026-05-07 03:44 54.27671 14.74123 35011 ft 497 kts 38°
2026-05-07 03:44 54.33016 14.81614 35011 ft 497 kts 38°
2026-05-07 03:45 54.38364 14.89119 35018 ft 496 kts 38°
2026-05-07 03:45 54.43693 14.96627 35012 ft 496 kts 38°
2026-05-07 03:46 54.49019 15.04165 35008 ft 495 kts 38°
2026-05-07 03:46 54.54324 15.11700 35011 ft 495 kts 38°
2026-05-07 03:47 54.59630 15.19269 35028 ft 494 kts 39°
2026-05-07 03:47 54.64916 15.26835 34997 ft 494 kts 38°
2026-05-07 03:48 54.70206 15.34416 34995 ft 495 kts 38°
2026-05-07 03:48 54.75506 15.42037 34998 ft 495 kts 39°
2026-05-07 03:49 54.80795 15.49683 35017 ft 496 kts 39°
2026-05-07 03:49 54.86084 15.57345 35015 ft 495 kts 39°
2026-05-07 03:50 54.91355 15.65058 35013 ft 495 kts 41°
2026-05-07 03:50 54.96211 15.73579 35013 ft 496 kts 45°
2026-05-07 03:51 55.01035 15.82167 35013 ft 496 kts 45°
2026-05-07 03:51 55.05855 15.90754 35016 ft 496 kts 45°
2026-05-07 03:52 55.10662 15.99370 35010 ft 495 kts 45°
2026-05-07 03:52 55.15462 16.08010 35008 ft 495 kts 45°
2026-05-07 03:53 55.20252 16.16666 35006 ft 495 kts 45°
2026-05-07 03:53 55.25035 16.25345 35028 ft 495 kts 45°
2026-05-07 03:54 55.29777 16.33972 35015 ft 494 kts 45°
2026-05-07 03:54 55.34535 16.42666 35015 ft 494 kts 46°
2026-05-07 03:55 55.39290 16.51382 35011 ft 494 kts 46°
2026-05-07 03:55 55.44038 16.60115 35013 ft 494 kts 46°
2026-05-07 03:56 55.48777 16.68875 35016 ft 494 kts 46°
2026-05-07 03:56 55.53506 16.77649 35007 ft 494 kts 46°
2026-05-07 03:57 55.58240 16.86457 35017 ft 494 kts 46°
2026-05-07 03:57 55.62964 16.95273 35010 ft 494 kts 46°
2026-05-07 03:58 55.67684 17.04125 35004 ft 494 kts 46°
2026-05-07 03:58 55.72398 17.13010 35001 ft 495 kts 46°
2026-05-07 03:59 55.77109 17.21921 35006 ft 496 kts 46°
2026-05-07 03:59 55.81865 17.30810 35008 ft 496 kts 45°
2026-05-07 04:00 55.86711 17.39545 35013 ft 496 kts 44°
2026-05-07 04:00 55.91567 17.48277 35019 ft 496 kts 45°
2026-05-07 04:01 55.96394 17.57092 35021 ft 496 kts 45°
2026-05-07 04:01 56.01185 17.65951 35020 ft 496 kts 45°
2026-05-07 04:02 56.05980 17.74844 35021 ft 496 kts 45°
2026-05-07 04:02 56.10779 17.83718 35027 ft 496 kts 45°
2026-05-07 04:03 56.15496 17.92736 35016 ft 496 kts 51°
2026-05-07 04:03 56.18946 18.03389 35000 ft 494 kts 70°
2026-05-07 04:04 56.20888 18.15207 34995 ft 493 kts 77°
2026-05-07 04:04 56.22666 18.27117 34996 ft 494 kts 77°
2026-05-07 04:05 56.24258 18.39103 34991 ft 493 kts 81°
2026-05-07 04:05 56.25571 18.51213 34997 ft 493 kts 82°
2026-05-07 04:06 56.26837 18.63348 34979 ft 494 kts 82°
2026-05-07 04:06 56.28169 18.75480 34988 ft 494 kts 81°
2026-05-07 04:07 56.29528 18.87613 34993 ft 495 kts 80°
2026-05-07 04:07 56.31616 18.99474 34991 ft 498 kts 73°
2026-05-07 04:08 56.33858 19.11276 34993 ft 498 kts 73°
2026-05-07 04:08 56.36077 19.23093 34991 ft 498 kts 73°
2026-05-07 04:09 56.38289 19.34955 34969 ft 498 kts 74°
2026-05-07 04:09 56.40489 19.46831 34978 ft 500 kts 73°
2026-05-07 04:10 56.42683 19.58750 34981 ft 501 kts 73°
2026-05-07 04:10 56.44879 19.70700 34992 ft 501 kts 74°
2026-05-07 04:11 56.47060 19.82674 34983 ft 501 kts 74°
2026-05-07 04:11 56.49226 19.94649 34993 ft 501 kts 74°
2026-05-07 04:12 56.51390 20.06650 34948 ft 502 kts 75°
2026-05-07 04:12 56.53545 20.18698 34957 ft 503 kts 75°
2026-05-07 04:13 56.55683 20.30795 34978 ft 504 kts 75°
2026-05-07 04:13 56.57815 20.42896 34990 ft 504 kts 75°
2026-05-07 04:14 56.59940 20.55038 34956 ft 504 kts 75°
2026-05-07 04:14 56.60993 20.61084 34720 ft 503 kts 75°
2026-05-07 04:14 56.62045 20.67146 34474 ft 503 kts 75°
2026-05-07 04:14 56.63092 20.73204 33941 ft 504 kts 75°
2026-05-07 04:15 56.64147 20.79332 32875 ft 510 kts 75°
2026-05-07 04:15 56.65207 20.85497 32006 ft 512 kts 75°
2026-05-07 04:15 56.66266 20.91685 31022 ft 515 kts 75°
2026-05-07 04:15 56.67333 20.97933 29975 ft 519 kts 75°
2026-05-07 04:16 56.68406 21.04234 28831 ft 521 kts 75°
2026-05-07 04:16 56.69467 21.10496 28166 ft 514 kts 75°
2026-05-07 04:16 56.70507 21.16664 27465 ft 508 kts 75°
2026-05-07 04:16 56.71537 21.22777 26778 ft 502 kts 75°
2026-05-07 04:17 56.72552 21.28819 26078 ft 497 kts 75°
2026-05-07 04:17 56.73556 21.34816 25393 ft 493 kts 75°
2026-05-07 04:17 56.74549 21.40763 24727 ft 488 kts 75°
2026-05-07 04:17 56.75530 21.46659 24064 ft 484 kts 75°
2026-05-07 04:18 56.76498 21.52507 23360 ft 480 kts 75°
2026-05-07 04:18 56.77453 21.58304 22679 ft 474 kts 75°
2026-05-07 04:18 56.78393 21.64029 22043 ft 468 kts 75°
2026-05-07 04:18 56.79319 21.69677 21427 ft 462 kts 75°
2026-05-07 04:19 56.80230 21.75251 20827 ft 456 kts 75°
2026-05-07 04:19 56.81123 21.80748 20258 ft 450 kts 75°
2026-05-07 04:19 56.82004 21.86192 19705 ft 444 kts 75°
2026-05-07 04:19 56.82871 21.91572 19141 ft 439 kts 75°
2026-05-07 04:20 56.83722 21.96883 18610 ft 434 kts 75°
2026-05-07 04:20 56.84564 22.02152 18039 ft 429 kts 75°
2026-05-07 04:20 56.85392 22.07335 17486 ft 423 kts 75°
2026-05-07 04:21 56.86747 22.15822 16564 ft 413 kts 75°
2026-05-07 04:21 56.87549 22.20824 16024 ft 408 kts 75°
2026-05-07 04:21 56.88339 22.25766 15458 ft 403 kts 75°
2026-05-07 04:21 56.89111 22.30645 15084 ft 394 kts 75°
2026-05-07 04:22 56.89863 22.35412 14718 ft 385 kts 75°
2026-05-07 04:22 56.90598 22.40076 14456 ft 381 kts 75°
2026-05-07 04:22 56.91349 22.44710 14212 ft 380 kts 75°
2026-05-07 04:22 56.92114 22.49326 13991 ft 378 kts 74°
2026-05-07 04:23 56.92880 22.53918 13749 ft 377 kts 74°
2026-05-07 04:23 56.93643 22.58495 13482 ft 374 kts 74°
2026-05-07 04:23 56.94398 22.63034 13302 ft 372 kts 74°
2026-05-07 04:23 56.95146 22.67572 13020 ft 370 kts 74°
2026-05-07 04:24 56.95880 22.72058 12736 ft 365 kts 74°
2026-05-07 04:24 56.96601 22.76483 12433 ft 360 kts 74°
2026-05-07 04:24 56.97319 22.80903 11790 ft 361 kts 74°
2026-05-07 04:24 56.98025 22.85259 11329 ft 352 kts 74°
2026-05-07 04:25 56.98713 22.89506 10445 ft 342 kts 74°
2026-05-07 04:25 56.99362 22.93529 10127 ft 316 kts 74°
2026-05-07 04:25 56.99969 22.97304 9730 ft 304 kts 75°
2026-05-07 04:25 57.00567 23.01043 9591 ft 306 kts 75°
2026-05-07 04:26 57.01009 23.04827 9460 ft 299 kts 86°
2026-05-07 04:26 57.00987 23.08568 9325 ft 290 kts 99°
2026-05-07 04:26 57.00775 23.12234 9066 ft 288 kts 98°
2026-05-07 04:26 57.00572 23.15865 8737 ft 285 kts 98°
2026-05-07 04:27 57.00373 23.19451 8414 ft 282 kts 98°
2026-05-07 04:27 57.00173 23.23012 8122 ft 278 kts 98°
2026-05-07 04:27 56.99979 23.26500 7874 ft 272 kts 98°
2026-05-07 04:27 56.99787 23.29951 7589 ft 269 kts 98°
2026-05-07 04:28 56.99542 23.33338 7239 ft 267 kts 106°
2026-05-07 04:28 56.98910 23.36457 6889 ft 257 kts 122°
2026-05-07 04:28 56.97913 23.39153 6602 ft 254 kts 129°
2026-05-07 04:28 56.96865 23.41741 6326 ft 251 kts 128°
2026-05-07 04:29 56.95831 23.44312 6043 ft 249 kts 127°
2026-05-07 04:29 56.94807 23.46861 5787 ft 247 kts 126°
2026-05-07 04:29 56.93791 23.49381 5525 ft 245 kts 125°
2026-05-07 04:29 56.92783 23.51884 5257 ft 243 kts 123°
2026-05-07 04:30 56.91788 23.54357 5011 ft 241 kts 122°
2026-05-07 04:30 56.90796 23.56827 4757 ft 240 kts 123°
2026-05-07 04:30 56.89807 23.59284 4501 ft 239 kts 123°
2026-05-07 04:30 56.88828 23.61717 4243 ft 236 kts 123°
2026-05-07 04:31 56.87855 23.64123 3994 ft 234 kts 124°
2026-05-07 04:31 56.86888 23.66501 3737 ft 232 kts 123°
2026-05-07 04:31 56.85931 23.68854 3513 ft 230 kts 123°
2026-05-07 04:31 56.84984 23.71190 3266 ft 228 kts 123°
2026-05-07 04:32 56.84054 23.73470 3140 ft 218 kts 123°
2026-05-07 04:32 56.83172 23.75647 3061 ft 211 kts 120°
2026-05-07 04:32 56.82541 23.78018 2946 ft 207 kts 105°
2026-05-07 04:32 56.82269 23.80650 2445 ft 213 kts 95°
2026-05-07 04:33 56.82097 23.83256 2293 ft 199 kts 95°
2026-05-07 04:33 56.81929 23.85658 2175 ft 185 kts 94°
2026-05-07 04:33 56.81766 23.87953 2092 ft 180 kts 93°
2026-05-07 04:33 56.81821 23.90201 1896 ft 176 kts 76°
2026-05-07 04:34 56.82247 23.92266 1711 ft 174 kts 62°
2026-05-07 04:34 56.82992 23.94010 1507 ft 177 kts 46°
2026-05-07 04:34 56.84010 23.95286 1317 ft 177 kts 29°
2026-05-07 04:34 56.85154 23.95912 1145 ft 164 kts 13°
2026-05-07 04:35 56.86225 23.95954 925 ft 146 kts
2026-05-07 04:35 56.87188 23.96121 722 ft 135 kts 10°
2026-05-07 04:35 56.88107 23.96347 572 ft 132 kts
2026-05-07 04:35 56.89023 23.96558 403 ft 133 kts
2026-05-07 04:36 56.89940 23.96697 249 ft 132 kts
2026-05-07 04:36 56.90856 23.96846 72 ft 133 kts
2026-05-07 04:36 56.91656 23.97007 44 ft 96 kts
2026-05-07 04:36 56.92122 23.97080 45 ft 26 kts
2026-05-07 04:37 56.92275 23.97109 45 ft 22 kts
2026-05-07 04:37 56.92420 23.97195 43 ft 23 kts 27°
2026-05-07 04:37 56.92531 23.97331 44 ft 17 kts 36°
2026-05-07 04:37 56.92607 23.97455 44 ft 13 kts 66°
2026-05-07 04:38 56.92608 23.97604 44 ft 10 kts 94°
2026-05-07 04:38 56.92603 23.97718 44 ft 10 kts 95°
2026-05-07 04:38 56.92595 23.97789 43 ft 3 kts 120°
2026-05-07 04:38 56.92570 23.97801 44 ft 5 kts 182°
2026-05-07 04:39 56.92551 23.97798 42 ft 2 kts 184°
2026-05-07 04:39 56.92545 23.97797 43 ft 0 kts 185°